Regional Weather Roundup
Issued by NWS Boston, MA

Home | Current Version | Previous Version | Text Only | Print | Product List | Glossary On
Versions: 1 2 3 4 5 6 7 8 9 10 11 12 13 14 15 16 17 18 19 20 21 22 23 24 25 26 27
000
ASUS41 KBOX 282010
RWRBOX

REGIONAL WEATHER ROUNDUP
NATIONAL WEATHER SERVICE TAUNTON MA
400 PM EDT WED JUN 28 2017

NOTE:  "FAIR" INDICATES FEW OR NO CLOUDS BELOW 12,000 FEET WITH NO
SIGNIFICANT WEATHER AND/OR OBSTRUCTIONS TO VISIBILITY.

MAZALL-282100-
EASTERN MASSACHUSETTS

CITY           SKY/WX    TMP DP  RH WIND       PRES   REMARKS
BOSTON         MOSUNNY   77  47  34 W15G22    30.03S
BEVERLY        MOSUNNY   75  50  41 W8G17     30.02S
LAWRENCE       MOSUNNY   77  49  37 W8        30.03S
BEDFORD        MOSUNNY   76  45  33 W12G20    30.02S
BLUE HILL        N/A     74  47  38 MISG      30.04S
NORWOOD        MOSUNNY   78  48  34 NW10G20   30.03F
MARSHFIELD     PTSUNNY   77  48  36 W10G22    30.03S
PLYMOUTH       MOSUNNY   75  46  35 W12       30.05S
TAUNTON        MOSUNNY   76  47  35 NW5       30.04F
NEW BEDFORD    PTSUNNY   76  47  35 W9G24     30.04S
$$

MAZALL-282100-
CAPE COD AND THE ISLANDS

CITY           SKY/WX    TMP DP  RH WIND       PRES   REMARKS
FALMOUTH       MOSUNNY   72  55  56 SW16G24   30.07R
HYANNIS        MOSUNNY   74  57  55 SW17      30.04R
CHATHAM        MOSUNNY   73  55  53 SW10G18   30.07S
PROVINCETOWN   SUNNY     74  54  49 SW9       30.06S
NANTUCKET      SUNNY     68  59  73 SW18      30.09R
MARTHAS VNYRD  SUNNY     73  56  54 SW15G22   30.07S
$$

MAZALL-282100-
CENTRAL AND WESTERN MASSACHUSETTS

CITY           SKY/WX    TMP DP  RH WIND       PRES   REMARKS
WORCESTER      MOSUNNY   71  44  37 W12G21    30.06
FITCHBURG      MOSUNNY   78  48  34 NW13G20   30.04F
ORANGE         MOSUNNY   74  47  38 W8G20     30.04F
SPRINGFIELD    MOSUNNY   76  48  37 NW8       30.03F
WESTFIELD      MOSUNNY   77  48  35 W9        30.07S
NORTH ADAMS    PTSUNNY   71  49  45 W13G18    30.05F
PITTSFIELD     MOSUNNY   70  49  47 W10G17    30.07F
$$

RIZALL-282100-
RHODE ISLAND

CITY           SKY/WX    TMP DP  RH WIND       PRES   REMARKS
PROVIDENCE     MOSUNNY   77  47  34 NW10G21   30.06S
NEWPORT        MOSUNNY   75  48  38 W8G17     30.06S
BLOCK ISLAND   SUNNY     71  58  63 SW16      30.09F
WESTERLY       MOSUNNY   75  54  47 W9G20     30.07F
$$

CTZALL-282100-
CONNECTICUT

CITY           SKY/WX    TMP DP  RH WIND       PRES   REMARKS
BRADLEY INTL   MOSUNNY   78  48  34 W8G18     30.05F
HARTFORD       MOSUNNY   77  48  35 W7        30.05F
BRIDGEPORT     MOSUNNY   81  49  32 W12       30.07F
GROTON         MOSUNNY   72  57  59 SW10      30.05F
NEW HAVEN      MOSUNNY   76  49  38 NW7       30.07F
CHESTER        NOT AVBL
MERIDEN        SUNNY     76  50  40 VRB3      30.06F
WILLIMANTIC    MOSUNNY   78  48  34 NW9       30.05F
OXFORD         MOSUNNY   73  48  40 W6        30.09F
$$

MEZ002-015-021-024-NHZ003-005-008-011-012-014-VTZ005-008-282100-
NORTHERN NEW ENGLAND

CITY           SKY/WX    TMP DP  RH WIND       PRES   REMARKS
PORTLAND ME    MOSUNNY   74  52  46 VRB7      29.98F
BANGOR ME      CLOUDY    65  53  65 S6        29.96R
CONCORD NH     MOSUNNY   74  51  44 N8        30.02S
MANCHESTER NH  PTSUNNY   75  43  31 W8        30.01S
NASHUA NH      PTSUNNY   75  47  36 NW12G18   30.03S
PORTSMOUTH NH  MOSUNNY   77  47  34 W15       29.99F
JAFFREY NH     NOT AVBL
KEENE NH       MOSUNNY   72  50  45 VRB3      30.03F
BURLINGTON VT  PTSUNNY   75  51  43 NW8       29.99F
MT. WASHINGTON SHOWER    39  39 100 W49G58      N/A  VSB 0   WCI  25
$$

NYZ052-076-282100-
EASTERN NEW YORK

CITY           SKY/WX    TMP DP  RH WIND       PRES   REMARKS
ALBANY         MOSUNNY   76  48  37 W16G25    30.05F
NEW YORK CITY  MOSUNNY   79  49  34 NW14G20   30.09S
$$

ANZALL-282100-
MARINE OBSERVATIONS

STATION/POSITION TIME  TEMP    WIND        PRES    VSBY  WAVE
                       AIR SEA DIR/SP/G                  HT/PER
                 (UTC) (F)     (DEG/KT/KT) (MB)    (MI)  (FT/S)
BOSTON BUOY      1950   67 63  230/  6/ 10 1016.6F         1
BUZZARDS BAY     1900   64     230/ 19/ 21 1018.5R
NANTUCKET SOUND  1950      67              1017.8R         2/ 3
MASS BAY-STELLWA 1904   65 62  200/  8/  8 1015.9R         1/ 8
ISLE OF SHOALS   1900   69     250/ 14/ 15 1015.8R
S OF BLOCK IS    1955      65                N/A           2/ 4
$$

......................KEY.........................
  SKY/WX - SKY CONDITION/PRESENT WEATHER
  TMP    - TEMPERATURE IN FAHRENHEIT
  DWPT   - DEWPOINT IN FAHRENHEIT
  RH     - RELATIVE HUMIDITY IN PERCENT
  WIND   - DIRECTION AND SPEED IN MPH
  PRES   - MEAN SEA LEVEL PRESSURE IN INCHES OF HG
  WCI    - WIND CHILL INDEX
  VSB    - VISIBILITY IN MILES
  HX     - HEAT INDEX
  TC     - TEMPERATURE IN CELSIUS
  VRB    - VARIABLE WIND DIRECTION
  N/A    - NOT AVAILABLE




USA.gov is the U.S. government's official web portal to all federal, state and local government web resources and services.